contact:dominique.lefevre@mio.osupytheas.fr, maurice.libes@osupytheas.fr, didier.mallarino@osupytheas.fr
Project:EMSO http://www.emso-fr.org/EMSO-France
Depth: 2436.0 m
Title:EMSO Ligure Ouest : Data MII capteur MICROCAT
DateTime_Computer,Latitude,Longitude,Temperature,Conductivity,Pressure,DateTime_Instrument
DateTime_Computer,Latitude,Longitude,degC,S m-1,dbar,DateTime_Instrument
2021-02-05T00:01:59Z,42.805,6.029,13.3027,4.60104,2470.287,2021-2-05T02:03:02Z
2021-02-05T00:05:02Z,42.805,6.029,13.3031,4.60088,2470.264,2021-2-05T02:06:06Z
2021-02-05T00:08:06Z,42.805,6.029,13.3019,4.60054,2470.25,2021-2-05T02:09:09Z
2021-02-05T00:11:09Z,42.805,6.029,13.3008,4.60030,2470.273,2021-2-05T02:12:12Z
2021-02-05T00:14:12Z,42.805,6.029,13.3029,4.60020,2470.287,2021-2-05T02:15:15Z
2021-02-05T00:17:15Z,42.805,6.029,13.3024,4.60034,2470.264,2021-2-05T02:18:18Z
2021-02-05T00:20:18Z,42.805,6.029,13.3028,4.60029,2470.297,2021-2-05T02:21:21Z
2021-02-05T00:23:21Z,42.805,6.029,13.3031,4.60062,2470.273,2021-2-05T02:24:24Z
2021-02-05T00:26:24Z,42.805,6.029,13.3041,4.60041,2470.25,2021-2-05T02:27:27Z
2021-02-05T00:29:27Z,42.805,6.029,13.3045,4.60017,2470.287,2021-2-05T02:30:30Z
2021-02-05T00:32:31Z,42.805,6.029,13.3026,4.60031,2470.273,2021-2-05T02:33:34Z
2021-02-05T00:35:34Z,42.805,6.029,13.3021,4.60029,2470.25,2021-2-05T02:36:37Z
2021-02-05T00:38:37Z,42.805,6.029,13.3036,4.60045,2470.264,2021-2-05T02:39:40Z
2021-02-05T00:41:40Z,42.805,6.029,13.3036,4.60027,2470.297,2021-2-05T02:42:43Z
2021-02-05T00:44:43Z,42.805,6.029,13.3037,4.60016,2470.297,2021-2-05T02:45:46Z
2021-02-05T00:47:46Z,42.805,6.029,13.3050,4.60036,2470.301,2021-2-05T02:48:49Z
2021-02-05T00:50:49Z,42.805,6.029,13.3052,4.60047,2470.297,2021-2-05T02:51:52Z
2021-02-05T00:53:52Z,42.805,6.029,13.3057,4.60035,2470.25,2021-2-05T02:54:55Z
2021-02-05T00:56:56Z,42.805,6.029,13.3055,4.60025,2470.25,2021-2-05T02:57:59Z
2021-02-05T00:59:59Z,42.805,6.029,13.3046,4.60010,2470.273,2021-2-05T03:01:02Z
2021-02-05T01:03:02Z,42.805,6.029,13.3059,4.60011,2470.297,2021-2-05T03:04:05Z
2021-02-05T01:06:05Z,42.805,6.029,13.3067,4.60053,2470.31,2021-2-05T03:07:08Z
2021-02-05T01:09:08Z,42.805,6.029,13.3063,4.60054,2470.287,2021-2-05T03:10:11Z
2021-02-05T01:12:11Z,42.805,6.029,13.3064,4.60027,2470.264,2021-2-05T03:13:14Z
2021-02-05T01:15:14Z,42.805,6.029,13.3044,4.60026,2470.287,2021-2-05T03:16:17Z
2021-02-05T01:18:17Z,42.805,6.029,13.3056,4.60047,2470.264,2021-2-05T03:19:20Z
2021-02-05T01:21:20Z,42.805,6.029,13.3057,4.60027,2470.31,2021-2-05T03:22:23Z
2021-02-05T01:24:24Z,42.805,6.029,13.3060,4.60043,2470.264,2021-2-05T03:25:27Z
2021-02-05T01:27:27Z,42.805,6.029,13.3058,4.60055,2470.287,2021-2-05T03:28:30Z
2021-02-05T01:30:30Z,42.805,6.029,13.3056,4.60057,2470.287,2021-2-05T03:31:33Z
2021-02-05T01:33:33Z,42.805,6.029,13.3053,4.60055,2470.264,2021-2-05T03:34:36Z
2021-02-05T01:36:36Z,42.805,6.029,13.3061,4.60044,2470.287,2021-2-05T03:37:39Z
2021-02-05T01:39:39Z,42.805,6.029,13.3060,4.60052,2470.287,2021-2-05T03:40:42Z
2021-02-05T01:42:42Z,42.805,6.029,13.3055,4.60064,2470.287,2021-2-05T03:43:45Z
2021-02-05T01:45:45Z,42.805,6.029,13.3002,4.60070,2470.264,2021-2-05T03:46:48Z
2021-02-05T01:48:48Z,42.805,6.029,13.2998,4.60087,2470.287,2021-2-05T03:49:52Z
2021-02-05T01:51:52Z,42.805,6.029,13.2999,4.60050,2470.25,2021-2-05T03:52:55Z
2021-02-05T01:54:55Z,42.805,6.029,13.3009,4.60024,2470.264,2021-2-05T03:55:58Z
2021-02-05T01:57:58Z,42.805,6.029,13.2990,4.60093,2470.227,2021-2-05T03:59:01Z
2021-02-05T02:01:01Z,42.805,6.029,13.2996,4.60050,2470.287,2021-2-05T04:02:04Z
2021-02-05T02:04:04Z,42.805,6.029,13.2988,4.60030,2470.254,2021-2-05T04:05:07Z
2021-02-05T02:07:07Z,42.805,6.029,13.2985,4.60041,2470.264,2021-2-05T04:08:10Z
2021-02-05T02:10:10Z,42.805,6.029,13.2990,4.60015,2470.25,2021-2-05T04:11:13Z
2021-02-05T02:13:13Z,42.805,6.029,13.2988,4.60029,2470.25,2021-2-05T04:14:16Z
2021-02-05T02:16:17Z,42.805,6.029,13.2990,4.60040,2470.24,2021-2-05T04:17:20Z
2021-02-05T02:19:20Z,42.805,6.029,13.2989,4.60006,2470.273,2021-2-05T04:20:23Z
2021-02-05T02:22:23Z,42.805,6.029,13.2989,4.60006,2470.25,2021-2-05T04:23:26Z
2021-02-05T02:25:26Z,42.805,6.029,13.2991,4.60017,2470.25,2021-2-05T04:26:29Z
2021-02-05T02:28:29Z,42.805,6.029,13.2987,4.59999,2470.24,2021-2-05T04:29:32Z
2021-02-05T02:31:32Z,42.805,6.029,13.2989,4.60006,2470.264,2021-2-05T04:32:35Z
2021-02-05T02:34:35Z,42.805,6.029,13.2988,4.60009,2470.273,2021-2-05T04:35:38Z
2021-02-05T02:37:38Z,42.805,6.029,13.2986,4.59998,2470.287,2021-2-05T04:38:41Z
2021-02-05T02:40:41Z,42.805,6.029,13.2992,4.59996,2470.287,2021-2-05T04:41:45Z
2021-02-05T02:43:45Z,42.805,6.029,13.2996,4.59998,2470.25,2021-2-05T04:44:48Z
2021-02-05T02:46:48Z,42.805,6.029,13.2991,4.60011,2470.287,2021-2-05T04:47:51Z
2021-02-05T02:49:51Z,42.805,6.029,13.2998,4.59999,2470.25,2021-2-05T04:50:54Z
2021-02-05T02:52:54Z,42.805,6.029,13.3000,4.59999,2470.24,2021-2-05T04:53:57Z
2021-02-05T02:55:57Z,42.805,6.029,13.3003,4.60003,2470.25,2021-2-05T04:57:00Z
2021-02-05T02:59:00Z,42.805,6.029,13.2990,4.60011,2470.25,2021-2-05T05:00:03Z
2021-02-05T03:02:03Z,42.805,6.029,13.2987,4.60001,2470.25,2021-2-05T05:03:06Z
2021-02-05T03:05:06Z,42.805,6.029,13.2996,4.59997,2470.287,2021-2-05T05:06:09Z
2021-02-05T03:08:10Z,42.805,6.029,13.2995,4.59999,2470.273,2021-2-05T05:09:13Z
2021-02-05T03:11:13Z,42.805,6.029,13.2987,4.59996,2470.264,2021-2-05T05:12:16Z
2021-02-05T03:14:16Z,42.805,6.029,13.2991,4.59995,2470.227,2021-2-05T05:15:19Z
2021-02-05T03:17:19Z,42.805,6.029,13.2989,4.59995,2470.287,2021-2-05T05:18:22Z
2021-02-05T03:20:22Z,42.805,6.029,13.2987,4.59996,2470.273,2021-2-05T05:21:25Z
2021-02-05T03:23:25Z,42.805,6.029,13.2987,4.60004,2470.227,2021-2-05T05:24:28Z
2021-02-05T03:26:28Z,42.805,6.029,13.2990,4.59998,2470.25,2021-2-05T05:27:31Z
2021-02-05T03:29:31Z,42.805,6.029,13.2986,4.59999,2470.264,2021-2-05T05:30:34Z
2021-02-05T03:32:34Z,42.805,6.029,13.2992,4.59998,2470.264,2021-2-05T05:33:38Z
2021-02-05T03:35:38Z,42.805,6.029,13.2989,4.60001,2470.264,2021-2-05T05:36:41Z
2021-02-05T03:38:41Z,42.805,6.029,13.2991,4.60005,2470.25,2021-2-05T05:39:44Z
2021-02-05T03:41:44Z,42.805,6.029,13.2990,4.59996,2470.25,2021-2-05T05:42:47Z
2021-02-05T03:44:47Z,42.805,6.029,13.2991,4.60002,2470.227,2021-2-05T05:45:50Z
2021-02-05T03:47:50Z,42.805,6.029,13.2990,4.59996,2470.31,2021-2-05T05:48:53Z
2021-02-05T03:50:53Z,42.805,6.029,13.2992,4.59999,2470.273,2021-2-05T05:51:56Z
2021-02-05T03:53:56Z,42.805,6.029,13.2992,4.59999,2470.264,2021-2-05T05:54:59Z
2021-02-05T03:56:59Z,42.805,6.029,13.2990,4.60003,2470.273,2021-2-05T05:58:02Z
2021-02-05T04:00:03Z,42.805,6.029,13.2988,4.59994,2470.287,2021-2-05T06:01:06Z
2021-02-05T04:03:06Z,42.805,6.029,13.2984,4.59996,2470.24,2021-2-05T06:04:09Z
2021-02-05T04:06:09Z,42.805,6.029,13.2989,4.59996,2470.217,2021-2-05T06:07:12Z
2021-02-05T04:09:12Z,42.805,6.029,13.2986,4.59994,2470.264,2021-2-05T06:10:15Z
2021-02-05T04:12:15Z,42.805,6.029,13.2986,4.59995,2470.273,2021-2-05T06:13:18Z
2021-02-05T04:15:18Z,42.805,6.029,13.2987,4.59995,2470.24,2021-2-05T06:16:21Z
2021-02-05T04:18:21Z,42.805,6.029,13.2987,4.59995,2470.227,2021-2-05T06:19:24Z
2021-02-05T04:21:24Z,42.805,6.029,13.2986,4.59999,2470.227,2021-2-05T06:22:27Z
2021-02-05T04:24:27Z,42.805,6.029,13.2993,4.60006,2470.227,2021-2-05T06:25:31Z
2021-02-05T04:27:31Z,42.805,6.029,13.2990,4.59999,2470.24,2021-2-05T06:28:34Z
2021-02-05T04:30:34Z,42.805,6.029,13.2989,4.60000,2470.264,2021-2-05T06:31:37Z
2021-02-05T04:33:37Z,42.805,6.029,13.2986,4.59998,2470.24,2021-2-05T06:34:40Z
2021-02-05T04:36:40Z,42.805,6.029,13.2991,4.59999,2470.25,2021-2-05T06:37:43Z
2021-02-05T04:39:43Z,42.805,6.029,13.2989,4.60002,2470.24,2021-2-05T06:40:46Z
2021-02-05T04:42:46Z,42.805,6.029,13.2989,4.59995,2470.25,2021-2-05T06:43:49Z
2021-02-05T04:45:49Z,42.805,6.029,13.2985,4.59999,2470.217,2021-2-05T06:46:52Z
2021-02-05T04:48:52Z,42.805,6.029,13.2989,4.60001,2470.217,2021-2-05T06:49:56Z
2021-02-05T04:51:56Z,42.805,6.029,13.2990,4.60000,2470.24,2021-2-05T06:52:59Z
2021-02-05T04:54:59Z,42.805,6.029,13.2986,4.59997,2470.203,2021-2-05T06:56:02Z
2021-02-05T04:58:02Z,42.805,6.029,13.2985,4.59998,2470.24,2021-2-05T06:59:05Z
2021-02-05T05:01:05Z,42.805,6.029,13.2990,4.60002,2470.227,2021-2-05T07:02:08Z
2021-02-05T05:04:08Z,42.805,6.029,13.2993,4.59995,2470.227,2021-2-05T07:05:11Z
2021-02-05T05:07:11Z,42.805,6.029,13.2991,4.59997,2470.203,2021-2-05T07:08:14Z
2021-02-05T05:10:14Z,42.805,6.029,13.2985,4.60005,2470.217,2021-2-05T07:11:17Z
2021-02-05T05:13:17Z,42.805,6.029,13.2987,4.59998,2470.24,2021-2-05T07:14:20Z
2021-02-05T05:16:20Z,42.805,6.029,13.2989,4.59996,2470.18,2021-2-05T07:17:24Z
2021-02-05T05:19:24Z,42.805,6.029,13.2991,4.59998,2470.194,2021-2-05T07:20:27Z
2021-02-05T05:22:27Z,42.805,6.029,13.2986,4.59996,2470.203,2021-2-05T07:23:30Z
2021-02-05T05:25:30Z,42.805,6.029,13.2989,4.59996,2470.217,2021-2-05T07:26:33Z
2021-02-05T05:28:33Z,42.805,6.029,13.2991,4.60000,2470.203,2021-2-05T07:29:36Z
2021-02-05T05:31:36Z,42.805,6.029,13.2990,4.60001,2470.227,2021-2-05T07:32:39Z
2021-02-05T05:34:39Z,42.805,6.029,13.2987,4.60001,2470.227,2021-2-05T07:35:42Z
2021-02-05T05:37:42Z,42.805,6.029,13.2991,4.60003,2470.203,2021-2-05T07:38:45Z
2021-02-05T05:40:45Z,42.805,6.029,13.2987,4.59996,2470.194,2021-2-05T07:41:49Z
2021-02-05T05:43:49Z,42.805,6.029,13.2987,4.60010,2470.227,2021-2-05T07:44:52Z
2021-02-05T05:46:52Z,42.805,6.029,13.2989,4.60016,2470.203,2021-2-05T07:47:55Z
2021-02-05T05:49:55Z,42.805,6.029,13.2990,4.59996,2470.24,2021-2-05T07:50:58Z
2021-02-05T05:52:58Z,42.805,6.029,13.2988,4.59997,2470.217,2021-2-05T07:54:01Z
2021-02-05T05:56:01Z,42.805,6.029,13.2990,4.59995,2470.203,2021-2-05T07:57:04Z
2021-02-05T05:59:04Z,42.805,6.029,13.2990,4.59994,2470.18,2021-2-05T08:00:07Z
2021-02-05T06:02:07Z,42.805,6.029,13.2990,4.59994,2470.203,2021-2-05T08:03:10Z
2021-02-05T06:05:10Z,42.805,6.029,13.2986,4.59993,2470.194,2021-2-05T08:06:13Z
2021-02-05T06:08:14Z,42.805,6.029,13.2991,4.59992,2470.194,2021-2-05T08:09:17Z
2021-02-05T06:11:17Z,42.805,6.029,13.2988,4.60019,2470.18,2021-2-05T08:12:20Z
2021-02-05T06:14:20Z,42.805,6.029,13.2985,4.59999,2470.194,2021-2-05T08:15:23Z
2021-02-05T06:17:23Z,42.805,6.029,13.2991,4.59995,2470.217,2021-2-05T08:18:26Z
2021-02-05T06:20:26Z,42.805,6.029,13.2990,4.59995,2470.203,2021-2-05T08:21:29Z
2021-02-05T06:23:29Z,42.805,6.029,13.2990,4.60021,2470.227,2021-2-05T08:24:32Z
2021-02-05T06:26:32Z,42.805,6.029,13.2987,4.59995,2470.203,2021-2-05T08:27:35Z
2021-02-05T06:29:35Z,42.805,6.029,13.2986,4.59993,2470.194,2021-2-05T08:30:38Z
2021-02-05T06:32:38Z,42.805,6.029,13.2988,4.59994,2470.18,2021-2-05T08:33:42Z
2021-02-05T06:35:42Z,42.805,6.029,13.2986,4.59992,2470.203,2021-2-05T08:36:45Z
2021-02-05T06:38:45Z,42.805,6.029,13.2986,4.59992,2470.194,2021-2-05T08:39:48Z
2021-02-05T06:41:48Z,42.805,6.029,13.2984,4.59995,2470.203,2021-2-05T08:42:51Z
2021-02-05T06:44:51Z,42.805,6.029,13.2988,4.59994,2470.194,2021-2-05T08:45:54Z
2021-02-05T06:47:54Z,42.805,6.029,13.2987,4.59994,2470.217,2021-2-05T08:48:57Z
2021-02-05T06:50:57Z,42.805,6.029,13.2989,4.59994,2470.217,2021-2-05T08:52:00Z
2021-02-05T06:54:00Z,42.805,6.029,13.2988,4.59998,2470.194,2021-2-05T08:55:03Z
2021-02-05T06:57:03Z,42.805,6.029,13.2989,4.59996,2470.18,2021-2-05T08:58:06Z
2021-02-05T07:00:06Z,42.805,6.029,13.2991,4.59997,2470.203,2021-2-05T09:01:10Z
2021-02-05T07:03:10Z,42.805,6.029,13.2991,4.59997,2470.194,2021-2-05T09:04:13Z
2021-02-05T07:06:13Z,42.805,6.029,13.2987,4.59993,2470.217,2021-2-05T09:07:16Z
2021-02-05T07:09:16Z,42.805,6.029,13.2990,4.59992,2470.203,2021-2-05T09:10:19Z
2021-02-05T07:12:19Z,42.805,6.029,13.2986,4.59996,2470.217,2021-2-05T09:13:22Z
2021-02-05T07:15:22Z,42.805,6.029,13.2990,4.59997,2470.203,2021-2-05T09:16:25Z
2021-02-05T07:18:25Z,42.805,6.029,13.2989,4.59994,2470.203,2021-2-05T09:19:28Z
2021-02-05T07:21:28Z,42.805,6.029,13.2987,4.59994,2470.203,2021-2-05T09:22:31Z
2021-02-05T07:24:31Z,42.805,6.029,13.2986,4.59995,2470.194,2021-2-05T09:25:35Z
2021-02-05T07:27:35Z,42.805,6.029,13.2986,4.59996,2470.24,2021-2-05T09:28:38Z
2021-02-05T07:30:38Z,42.805,6.029,13.2987,4.59998,2470.217,2021-2-05T09:31:41Z
2021-02-05T07:33:41Z,42.805,6.029,13.2989,4.59995,2470.194,2021-2-05T09:34:44Z
2021-02-05T07:36:44Z,42.805,6.029,13.2985,4.59999,2470.203,2021-2-05T09:37:47Z
2021-02-05T07:39:47Z,42.805,6.029,13.2988,4.60003,2470.217,2021-2-05T09:40:50Z
2021-02-05T07:42:50Z,42.805,6.029,13.2988,4.60003,2470.18,2021-2-05T09:43:53Z
2021-02-05T07:45:53Z,42.805,6.029,13.2987,4.60009,2470.203,2021-2-05T09:46:56Z
2021-02-05T07:48:56Z,42.805,6.029,13.2988,4.59996,2470.203,2021-2-05T09:49:59Z
2021-02-05T07:52:00Z,42.805,6.029,13.2990,4.59996,2470.194,2021-2-05T09:53:03Z
2021-02-05T07:55:03Z,42.805,6.029,13.2990,4.59995,2470.203,2021-2-05T09:56:06Z
2021-02-05T07:58:06Z,42.805,6.029,13.2990,4.59995,2470.24,2021-2-05T09:59:09Z
2021-02-05T08:01:09Z,42.805,6.029,13.2991,4.59995,2470.203,2021-2-05T10:02:12Z
2021-02-05T08:04:12Z,42.805,6.029,13.2990,4.59996,2470.194,2021-2-05T10:05:15Z
2021-02-05T08:07:15Z,42.805,6.029,13.2988,4.60001,2470.217,2021-2-05T10:08:18Z
2021-02-05T08:10:18Z,42.805,6.029,13.2985,4.59996,2470.194,2021-2-05T10:11:21Z
2021-02-05T08:13:21Z,42.805,6.029,13.2986,4.59996,2470.217,2021-2-05T10:14:24Z
2021-02-05T08:16:25Z,42.805,6.029,13.2987,4.59994,2470.217,2021-2-05T10:17:28Z
2021-02-05T08:19:28Z,42.805,6.029,13.2988,4.59994,2470.217,2021-2-05T10:20:31Z
2021-02-05T08:22:31Z,42.805,6.029,13.2990,4.59999,2470.227,2021-2-05T10:23:34Z
2021-02-05T08:25:34Z,42.805,6.029,13.2990,4.59997,2470.194,2021-2-05T10:26:37Z
2021-02-05T08:28:37Z,42.805,6.029,13.2990,4.59994,2470.203,2021-2-05T10:29:40Z
2021-02-05T08:31:40Z,42.805,6.029,13.2990,4.59998,2470.156,2021-2-05T10:32:43Z
2021-02-05T08:34:43Z,42.805,6.029,13.2982,4.59999,2470.18,2021-2-05T10:35:46Z
2021-02-05T08:37:46Z,42.805,6.029,13.2986,4.59999,2470.264,2021-2-05T10:38:49Z
2021-02-05T08:40:49Z,42.805,6.029,13.2986,4.59996,2470.264,2021-2-05T10:41:53Z
2021-02-05T08:43:53Z,42.805,6.029,13.2987,4.59995,2470.24,2021-2-05T10:44:56Z
2021-02-05T08:46:56Z,42.805,6.029,13.2984,4.59998,2470.227,2021-2-05T10:47:59Z
2021-02-05T08:49:59Z,42.805,6.029,13.2990,4.59999,2470.24,2021-2-05T10:51:02Z
2021-02-05T08:53:02Z,42.805,6.029,13.2986,4.59996,2470.227,2021-2-05T10:54:05Z
2021-02-05T08:56:05Z,42.805,6.029,13.2991,4.59996,2470.217,2021-2-05T10:57:08Z
2021-02-05T08:59:08Z,42.805,6.029,13.2989,4.59999,2470.24,2021-2-05T11:00:11Z
2021-02-05T09:02:11Z,42.805,6.029,13.2983,4.60031,2470.227,2021-2-05T11:03:14Z
2021-02-05T09:05:14Z,42.805,6.029,13.2986,4.60005,2470.217,2021-2-05T11:06:18Z
2021-02-05T09:08:18Z,42.805,6.029,13.2986,4.60006,2470.203,2021-2-05T11:09:21Z
2021-02-05T09:11:21Z,42.805,6.029,13.2986,4.60006,2470.227,2021-2-05T11:12:24Z
2021-02-05T09:14:24Z,42.805,6.029,13.2987,4.60018,2470.264,2021-2-05T11:15:27Z
2021-02-05T09:17:27Z,42.805,6.029,13.2987,4.60009,2470.24,2021-2-05T11:18:30Z
2021-02-05T09:20:30Z,42.805,6.029,13.2990,4.60016,2470.264,2021-2-05T11:21:33Z
2021-02-05T09:23:33Z,42.805,6.029,13.2985,4.60000,2470.227,2021-2-05T11:24:36Z
2021-02-05T09:26:36Z,42.805,6.029,13.2989,4.60000,2470.227,2021-2-05T11:27:39Z
2021-02-05T09:29:39Z,42.805,6.029,13.2987,4.59999,2470.264,2021-2-05T11:30:43Z
2021-02-05T09:32:43Z,42.805,6.029,13.2990,4.60000,2470.24,2021-2-05T11:33:46Z
2021-02-05T09:35:46Z,42.805,6.029,13.2986,4.60006,2470.227,2021-2-05T11:36:49Z
2021-02-05T09:38:49Z,42.805,6.029,13.2983,4.59999,2470.24,2021-2-05T11:39:52Z
2021-02-05T09:41:52Z,42.805,6.029,13.2987,4.60000,2470.264,2021-2-05T11:42:55Z
2021-02-05T09:44:55Z,42.805,6.029,13.2988,4.60011,2470.264,2021-2-05T11:45:58Z
2021-02-05T09:47:58Z,42.805,6.029,13.2986,4.60012,2470.227,2021-2-05T11:49:01Z
2021-02-05T09:51:01Z,42.805,6.029,13.2992,4.60050,2470.264,2021-2-05T11:52:04Z
2021-02-05T09:54:04Z,42.805,6.029,13.2992,4.60022,2470.217,2021-2-05T11:55:08Z
2021-02-05T09:57:08Z,42.805,6.029,13.2989,4.60035,2470.25,2021-2-05T11:58:11Z
2021-02-05T10:00:11Z,42.805,6.029,13.2996,4.60044,2470.287,2021-2-05T12:01:14Z
2021-02-05T10:03:14Z,42.805,6.029,13.2988,4.60025,2470.297,2021-2-05T12:04:17Z
2021-02-05T10:06:17Z,42.805,6.029,13.2983,4.60032,2470.24,2021-2-05T12:07:20Z
2021-02-05T10:09:20Z,42.805,6.029,13.2990,4.60046,2470.287,2021-2-05T12:10:23Z
2021-02-05T10:12:23Z,42.805,6.029,13.2991,4.60044,2470.25,2021-2-05T12:13:26Z
2021-02-05T10:15:26Z,42.805,6.029,13.2986,4.60086,2470.273,2021-2-05T12:16:29Z
2021-02-05T10:18:29Z,42.805,6.029,13.2988,4.60042,2470.25,2021-2-05T12:19:33Z
2021-02-05T10:21:33Z,42.805,6.029,13.2990,4.60035,2470.273,2021-2-05T12:22:36Z
2021-02-05T10:24:36Z,42.805,6.029,13.2987,4.60035,2470.264,2021-2-05T12:25:39Z
2021-02-05T10:27:39Z,42.805,6.029,13.3004,4.60011,2470.273,2021-2-05T12:28:42Z
2021-02-05T10:30:42Z,42.805,6.029,13.2995,4.60021,2470.31,2021-2-05T12:31:45Z
2021-02-05T10:33:45Z,42.805,6.029,13.3003,4.60014,2470.264,2021-2-05T12:34:48Z
2021-02-05T10:36:48Z,42.805,6.029,13.3009,4.60053,2470.273,2021-2-05T12:37:51Z
2021-02-05T10:39:51Z,42.805,6.029,13.3014,4.60001,2470.264,2021-2-05T12:40:54Z
2021-02-05T10:42:54Z,42.805,6.029,13.3022,4.60003,2470.264,2021-2-05T12:43:58Z
2021-02-05T10:45:58Z,42.805,6.029,13.3030,4.60009,2470.273,2021-2-05T12:47:01Z
2021-02-05T10:49:01Z,42.805,6.029,13.3031,4.60006,2470.273,2021-2-05T12:50:04Z
2021-02-05T10:52:04Z,42.805,6.029,13.3035,4.60029,2470.273,2021-2-05T12:53:07Z
2021-02-05T10:55:07Z,42.805,6.029,13.3040,4.60026,2470.273,2021-2-05T12:56:10Z
2021-02-05T10:58:10Z,42.805,6.029,13.3039,4.60025,2470.273,2021-2-05T12:59:13Z
2021-02-05T11:01:13Z,42.805,6.029,13.3054,4.60023,2470.264,2021-2-05T13:02:16Z
2021-02-05T11:04:16Z,42.805,6.029,13.3068,4.60049,2470.25,2021-2-05T13:05:19Z
2021-02-05T11:07:19Z,42.805,6.029,13.3067,4.60047,2470.31,2021-2-05T13:08:23Z
2021-02-05T11:10:23Z,42.805,6.029,13.3048,4.60060,2470.273,2021-2-05T13:11:26Z
2021-02-05T11:13:26Z,42.805,6.029,13.3041,4.60031,2470.32,2021-2-05T13:14:29Z
2021-02-05T11:16:29Z,42.805,6.029,13.3052,4.60039,2470.31,2021-2-05T13:17:32Z
2021-02-05T11:19:32Z,42.805,6.029,13.3017,4.60045,2470.31,2021-2-05T13:20:35Z
2021-02-05T11:22:35Z,42.805,6.029,13.3032,4.60041,2470.287,2021-2-05T13:23:38Z
2021-02-05T11:25:38Z,42.805,6.029,13.3044,4.60053,2470.31,2021-2-05T13:26:41Z
2021-02-05T11:28:41Z,42.805,6.029,13.3046,4.60052,2470.297,2021-2-05T13:29:44Z
2021-02-05T11:31:44Z,42.805,6.029,13.3042,4.60073,2470.287,2021-2-05T13:32:48Z
2021-02-05T11:34:48Z,42.805,6.029,13.3026,4.60062,2470.287,2021-2-05T13:35:51Z
2021-02-05T11:37:51Z,42.805,6.029,13.3024,4.60029,2470.273,2021-2-05T13:38:54Z
2021-02-05T11:40:54Z,42.805,6.029,13.3039,4.60037,2470.31,2021-2-05T13:41:57Z
2021-02-05T11:43:57Z,42.805,6.029,13.3046,4.60033,2470.273,2021-2-05T13:45:00Z
2021-02-05T11:47:00Z,42.805,6.029,13.3017,4.60049,2470.273,2021-2-05T13:48:03Z
2021-02-05T11:50:03Z,42.805,6.029,13.3071,4.60026,2470.31,2021-2-05T13:51:06Z
2021-02-05T11:53:06Z,42.805,6.029,13.3047,4.60049,2470.32,2021-2-05T13:54:09Z
2021-02-05T11:56:09Z,42.805,6.029,13.3049,4.60091,2470.26,2021-2-05T13:57:13Z
2021-02-05T11:59:13Z,42.805,6.029,13.3031,4.60070,2470.334,2021-2-05T14:00:16Z
2021-02-05T12:02:16Z,42.805,6.029,13.3020,4.60117,2470.31,2021-2-05T14:03:19Z
2021-02-05T12:05:19Z,42.805,6.029,13.3045,4.60049,2470.31,2021-2-05T14:06:22Z
2021-02-05T12:08:22Z,42.805,6.029,13.3023,4.60033,2470.31,2021-2-05T14:09:25Z
2021-02-05T12:11:25Z,42.805,6.029,13.3040,4.60055,2470.31,2021-2-05T14:12:28Z
2021-02-05T12:14:28Z,42.805,6.029,13.3057,4.60039,2470.287,2021-2-05T14:15:31Z
2021-02-05T12:17:31Z,42.805,6.029,13.3067,4.60074,2470.357,2021-2-05T14:18:34Z
2021-02-05T12:20:34Z,42.805,6.029,13.3063,4.60090,2470.287,2021-2-05T14:21:38Z
2021-02-05T12:23:38Z,42.805,6.029,13.3035,4.60047,2470.31,2021-2-05T14:24:41Z
2021-02-05T12:26:41Z,42.805,6.029,13.3071,4.60095,2470.357,2021-2-05T14:27:44Z
2021-02-05T12:29:44Z,42.805,6.029,13.3037,4.60089,2470.32,2021-2-05T14:30:47Z
2021-02-05T12:32:47Z,42.805,6.029,13.3039,4.60081,2470.343,2021-2-05T14:33:50Z
2021-02-05T12:35:50Z,42.805,6.029,13.3038,4.60058,2470.287,2021-2-05T14:36:53Z
2021-02-05T12:38:53Z,42.805,6.029,13.3044,4.60043,2470.32,2021-2-05T14:39:56Z
2021-02-05T12:41:56Z,42.805,6.029,13.3051,4.60062,2470.273,2021-2-05T14:42:59Z
2021-02-05T12:44:59Z,42.805,6.029,13.3064,4.60067,2470.287,2021-2-05T14:46:03Z
2021-02-05T12:48:03Z,42.805,6.029,13.3065,4.60064,2470.287,2021-2-05T14:49:06Z
2021-02-05T12:51:06Z,42.805,6.029,13.3066,4.60036,2470.334,2021-2-05T14:52:09Z
2021-02-05T12:54:09Z,42.805,6.029,13.3031,4.60072,2470.297,2021-2-05T14:55:12Z
2021-02-05T12:57:12Z,42.805,6.029,13.3056,4.60052,2470.31,2021-2-05T14:58:15Z
2021-02-05T13:00:15Z,42.805,6.029,13.3043,4.60087,2470.297,2021-2-05T15:01:18Z
2021-02-05T13:03:18Z,42.805,6.029,13.3061,4.60057,2470.297,2021-2-05T15:04:21Z
2021-02-05T13:06:21Z,42.805,6.029,13.3058,4.60072,2470.287,2021-2-05T15:07:24Z
2021-02-05T13:09:24Z,42.805,6.029,13.3060,4.60034,2470.297,2021-2-05T15:10:28Z
2021-02-05T13:12:27Z,42.805,6.029,13.3026,4.60084,2470.297,2021-2-05T15:13:31Z
2021-02-05T13:15:31Z,42.805,6.029,13.3042,4.60080,2470.273,2021-2-05T15:16:34Z
2021-02-05T13:18:34Z,42.805,6.029,13.3059,4.60069,2470.273,2021-2-05T15:19:37Z
2021-02-05T13:21:37Z,42.805,6.029,13.3053,4.60086,2470.273,2021-2-05T15:22:40Z
2021-02-05T13:24:40Z,42.805,6.029,13.3069,4.60073,2470.287,2021-2-05T15:25:43Z
2021-02-05T13:27:43Z,42.805,6.029,13.3056,4.60075,2470.287,2021-2-05T15:28:46Z
2021-02-05T13:30:46Z,42.805,6.029,13.3062,4.60061,2470.273,2021-2-05T15:31:49Z
2021-02-05T13:33:49Z,42.805,6.029,13.3049,4.60072,2470.287,2021-2-05T15:34:52Z
2021-02-05T13:36:52Z,42.805,6.029,13.3048,4.60064,2470.31,2021-2-05T15:37:56Z
2021-02-05T13:39:56Z,42.805,6.029,13.3063,4.60063,2470.287,2021-2-05T15:40:59Z
2021-02-05T13:42:59Z,42.805,6.029,13.3073,4.60069,2470.297,2021-2-05T15:44:02Z
2021-02-05T13:46:02Z,42.805,6.029,13.3040,4.60062,2470.31,2021-2-05T15:47:05Z
2021-02-05T13:49:05Z,42.805,6.029,13.3028,4.60021,2470.287,2021-2-05T15:50:08Z
2021-02-05T13:52:08Z,42.805,6.029,13.3042,4.60053,2470.31,2021-2-05T15:53:11Z
2021-02-05T13:55:11Z,42.805,6.029,13.3063,4.60063,2470.273,2021-2-05T15:56:14Z
2021-02-05T13:58:14Z,42.805,6.029,13.3074,4.60016,2470.31,2021-2-05T15:59:17Z
2021-02-05T14:01:17Z,42.805,6.029,13.3079,4.60040,2470.273,2021-2-05T16:02:21Z
2021-02-05T14:04:21Z,42.805,6.029,13.3067,4.60055,2470.297,2021-2-05T16:05:24Z
2021-02-05T14:07:24Z,42.805,6.029,13.3055,4.60048,2470.24,2021-2-05T16:08:27Z
2021-02-05T14:10:27Z,42.805,6.029,13.3037,4.60044,2470.273,2021-2-05T16:11:30Z
2021-02-05T14:13:30Z,42.805,6.029,13.3034,4.60056,2470.31,2021-2-05T16:14:33Z
2021-02-05T14:16:33Z,42.805,6.029,13.3024,4.60050,2470.273,2021-2-05T16:17:36Z
2021-02-05T14:19:36Z,42.805,6.029,13.3012,4.60053,2470.273,2021-2-05T16:20:39Z
2021-02-05T14:22:39Z,42.805,6.029,13.3025,4.60056,2470.287,2021-2-05T16:23:42Z
2021-02-05T14:25:42Z,42.805,6.029,13.3029,4.60045,2470.31,2021-2-05T16:26:46Z
2021-02-05T14:28:46Z,42.805,6.029,13.3019,4.60026,2470.287,2021-2-05T16:29:49Z
2021-02-05T14:31:49Z,42.805,6.029,13.3011,4.60068,2470.32,2021-2-05T16:32:52Z
2021-02-05T14:34:52Z,42.805,6.029,13.3004,4.60054,2470.273,2021-2-05T16:35:55Z
2021-02-05T14:37:55Z,42.805,6.029,13.3028,4.60032,2470.297,2021-2-05T16:38:58Z
2021-02-05T14:40:58Z,42.805,6.029,13.3034,4.60036,2470.264,2021-2-05T16:42:01Z
2021-02-05T14:44:01Z,42.805,6.029,13.3039,4.60044,2470.287,2021-2-05T16:45:04Z
2021-02-05T14:47:04Z,42.805,6.029,13.3021,4.60067,2470.287,2021-2-05T16:48:07Z
2021-02-05T14:50:07Z,42.805,6.029,13.3051,4.60023,2470.287,2021-2-05T16:51:11Z
2021-02-05T14:53:11Z,42.805,6.029,13.3048,4.60028,2470.287,2021-2-05T16:54:14Z
2021-02-05T14:56:14Z,42.805,6.029,13.3043,4.60024,2470.287,2021-2-05T16:57:17Z
2021-02-05T14:59:17Z,42.805,6.029,13.3045,4.60051,2470.264,2021-2-05T17:00:20Z
2021-02-05T15:02:20Z,42.805,6.029,13.3051,4.60026,2470.287,2021-2-05T17:03:23Z
2021-02-05T15:05:23Z,42.805,6.029,13.3046,4.60033,2470.24,2021-2-05T17:06:26Z
2021-02-05T15:08:26Z,42.805,6.029,13.3027,4.60035,2470.273,2021-2-05T17:09:29Z
2021-02-05T15:11:29Z,42.805,6.029,13.3029,4.60052,2470.287,2021-2-05T17:12:32Z